Year,Month,Day,Hour,Minute,Value (Times are PST for insolation in W/m^2)
2021,01,24,00,00,0.00
2021,01,24,00,01,0.00
2021,01,24,00,02,0.00
2021,01,24,00,03,0.00
2021,01,24,00,04,0.00
2021,01,24,00,05,0.00
2021,01,24,00,06,0.00
2021,01,24,00,07,0.00
2021,01,24,00,08,0.00
2021,01,24,00,09,0.00
2021,01,24,00,10,0.00
2021,01,24,00,11,0.00
2021,01,24,00,12,0.00
2021,01,24,00,13,0.00
2021,01,24,00,14,0.00
2021,01,24,00,15,0.00
2021,01,24,00,16,0.00
2021,01,24,00,17,0.00
2021,01,24,00,18,0.00
2021,01,24,00,19,0.00
2021,01,24,00,20,0.00
2021,01,24,00,21,0.00
2021,01,24,00,22,0.00
2021,01,24,00,23,0.00
2021,01,24,00,24,0.00
2021,01,24,00,25,0.00
2021,01,24,00,26,0.00
2021,01,24,00,27,0.00
2021,01,24,00,28,0.00
2021,01,24,00,29,0.00
2021,01,24,00,30,0.00
2021,01,24,00,31,0.00
2021,01,24,00,32,0.00
2021,01,24,00,33,0.00
2021,01,24,00,34,0.00
2021,01,24,00,35,0.00
2021,01,24,00,36,0.00
2021,01,24,00,37,0.00
2021,01,24,00,38,0.00
2021,01,24,00,39,0.00
2021,01,24,00,40,0.00
2021,01,24,00,41,0.00
2021,01,24,00,42,0.00
2021,01,24,00,43,0.00
2021,01,24,00,44,0.00
2021,01,24,00,45,0.00
2021,01,24,00,46,0.00
2021,01,24,00,47,0.00
2021,01,24,00,48,0.00
2021,01,24,00,49,0.00
2021,01,24,00,50,0.00
2021,01,24,00,51,0.00
2021,01,24,00,52,0.00
2021,01,24,00,53,0.00
2021,01,24,00,54,0.00
2021,01,24,00,55,0.00
2021,01,24,00,56,0.00
2021,01,24,00,57,0.00
2021,01,24,00,58,0.00
2021,01,24,00,59,0.00
2021,01,24,01,00,0.00
2021,01,24,01,01,0.00
2021,01,24,01,02,0.00
2021,01,24,01,03,0.00
2021,01,24,01,04,0.00
2021,01,24,01,05,0.00
2021,01,24,01,06,0.00
2021,01,24,01,07,0.00
2021,01,24,01,08,0.00
2021,01,24,01,09,0.00
2021,01,24,01,10,0.00
2021,01,24,01,11,0.00
2021,01,24,01,12,0.00
2021,01,24,01,13,0.00
2021,01,24,01,14,0.00
2021,01,24,01,15,0.00
2021,01,24,01,16,0.00
2021,01,24,01,17,0.00
2021,01,24,01,18,0.00
2021,01,24,01,19,0.00
2021,01,24,01,20,0.00
2021,01,24,01,21,0.00
2021,01,24,01,22,0.00
2021,01,24,01,23,0.00
2021,01,24,01,24,0.00
2021,01,24,01,25,0.00
2021,01,24,01,26,0.00
2021,01,24,01,27,0.00
2021,01,24,01,28,0.00
2021,01,24,01,29,0.00
2021,01,24,01,30,0.00
2021,01,24,01,31,0.00
2021,01,24,01,32,0.00
2021,01,24,01,33,0.00
2021,01,24,01,34,0.00
2021,01,24,01,35,0.00
2021,01,24,01,36,0.00
2021,01,24,01,37,0.00
2021,01,24,01,38,0.00
2021,01,24,01,39,0.00
2021,01,24,01,40,0.00
2021,01,24,01,41,0.00
2021,01,24,01,42,0.00
2021,01,24,01,43,0.00
2021,01,24,01,44,0.00
2021,01,24,01,45,0.00
2021,01,24,01,46,0.00
2021,01,24,01,47,0.00
2021,01,24,01,48,0.00
2021,01,24,01,49,0.00
2021,01,24,01,50,0.00
2021,01,24,01,51,0.00
2021,01,24,01,52,0.00
2021,01,24,01,53,0.00
2021,01,24,01,54,0.00
2021,01,24,01,55,0.00
2021,01,24,01,56,0.00
2021,01,24,01,57,0.00
2021,01,24,01,58,0.00
2021,01,24,01,59,0.00
2021,01,24,02,00,0.00
2021,01,24,02,01,0.00
2021,01,24,02,02,0.00
2021,01,24,02,03,0.00
2021,01,24,02,04,0.00
2021,01,24,02,05,0.00
2021,01,24,02,06,0.00
2021,01,24,02,07,0.00
2021,01,24,02,08,0.00
2021,01,24,02,09,0.00
2021,01,24,02,10,0.00
2021,01,24,02,11,0.00
2021,01,24,02,12,0.00
2021,01,24,02,13,0.00
2021,01,24,02,14,0.00
2021,01,24,02,15,0.00
2021,01,24,02,16,0.00
2021,01,24,02,17,0.00
2021,01,24,02,18,0.00
2021,01,24,02,19,0.00
2021,01,24,02,20,0.00
2021,01,24,02,21,0.00
2021,01,24,02,22,0.00
2021,01,24,02,23,0.00
2021,01,24,02,24,0.00
2021,01,24,02,25,0.00
2021,01,24,02,26,0.00
2021,01,24,02,27,0.00
2021,01,24,02,28,0.00
2021,01,24,02,29,0.00
2021,01,24,02,30,0.00
2021,01,24,02,31,0.00
2021,01,24,02,32,0.00
2021,01,24,02,33,0.00
2021,01,24,02,34,0.00
2021,01,24,02,35,0.00
2021,01,24,02,36,0.00
2021,01,24,02,37,0.00
2021,01,24,02,38,0.00
2021,01,24,02,39,0.00
2021,01,24,02,40,0.00
2021,01,24,02,41,0.00
2021,01,24,02,42,0.00
2021,01,24,02,43,0.00
2021,01,24,02,44,0.00
2021,01,24,02,45,0.00
2021,01,24,02,46,0.00
2021,01,24,02,47,0.00
2021,01,24,02,48,0.00
2021,01,24,02,49,0.00
2021,01,24,02,50,0.00
2021,01,24,02,51,0.00
2021,01,24,02,52,0.00
2021,01,24,02,53,0.00
2021,01,24,02,54,0.00
2021,01,24,02,55,0.00
2021,01,24,02,56,0.00
2021,01,24,02,57,0.00
2021,01,24,02,58,0.00
2021,01,24,02,59,0.00
2021,01,24,03,00,0.00
2021,01,24,03,01,0.00
2021,01,24,03,02,0.00
2021,01,24,03,03,0.00
2021,01,24,03,04,0.00
2021,01,24,03,05,0.00
2021,01,24,03,06,0.00
2021,01,24,03,07,0.00
2021,01,24,03,08,0.00
2021,01,24,03,09,0.00
2021,01,24,03,10,0.00
2021,01,24,03,11,0.00
2021,01,24,03,12,0.00
2021,01,24,03,13,0.00
2021,01,24,03,14,0.00
2021,01,24,03,15,0.00
2021,01,24,03,16,0.00
2021,01,24,03,17,0.00
2021,01,24,03,18,0.00
2021,01,24,03,19,0.00
2021,01,24,03,20,0.00
2021,01,24,03,21,0.00
2021,01,24,03,22,0.00
2021,01,24,03,23,0.00
2021,01,24,03,24,0.00
2021,01,24,03,25,0.00
2021,01,24,03,26,0.00
2021,01,24,03,27,0.00
2021,01,24,03,28,0.00
2021,01,24,03,29,0.00
2021,01,24,03,30,0.00
2021,01,24,03,31,0.00
2021,01,24,03,32,0.00
2021,01,24,03,33,0.00
2021,01,24,03,34,0.00
2021,01,24,03,35,0.00
2021,01,24,03,36,0.00
2021,01,24,03,37,0.00
2021,01,24,03,38,0.00
2021,01,24,03,39,0.00
2021,01,24,03,40,0.00
2021,01,24,03,41,0.00
2021,01,24,03,42,0.00
2021,01,24,03,43,0.00
2021,01,24,03,44,0.00
2021,01,24,03,45,0.00
2021,01,24,03,46,0.00
2021,01,24,03,47,0.00
2021,01,24,03,48,0.00
2021,01,24,03,49,0.00
2021,01,24,03,50,0.00
2021,01,24,03,51,0.00
2021,01,24,03,52,0.00
2021,01,24,03,53,0.00
2021,01,24,03,54,0.00
2021,01,24,03,55,0.00
2021,01,24,03,56,0.00
2021,01,24,03,57,0.00
2021,01,24,03,58,0.00
2021,01,24,03,59,0.00
2021,01,24,04,00,0.00
2021,01,24,04,01,0.00
2021,01,24,04,02,0.00
2021,01,24,04,03,0.00
2021,01,24,04,04,0.00
2021,01,24,04,05,0.00
2021,01,24,04,06,0.00
2021,01,24,04,07,0.00
2021,01,24,04,08,0.00
2021,01,24,04,09,0.00
2021,01,24,04,10,0.00
2021,01,24,04,11,0.00
2021,01,24,04,12,0.00
2021,01,24,04,13,0.00
2021,01,24,04,14,0.00
2021,01,24,04,15,0.00
2021,01,24,04,16,0.00
2021,01,24,04,17,0.00
2021,01,24,04,18,0.00
2021,01,24,04,19,0.00
2021,01,24,04,20,0.00
2021,01,24,04,21,0.00
2021,01,24,04,22,0.00
2021,01,24,04,23,0.00
2021,01,24,04,24,0.00
2021,01,24,04,25,0.00
2021,01,24,04,26,0.00
2021,01,24,04,27,0.00
2021,01,24,04,28,0.00
2021,01,24,04,29,0.00
2021,01,24,04,30,0.00
2021,01,24,04,31,0.00
2021,01,24,04,32,0.00
2021,01,24,04,33,0.00
2021,01,24,04,34,0.00
2021,01,24,04,35,0.00
2021,01,24,04,36,0.00
2021,01,24,04,37,0.00
2021,01,24,04,38,0.00
2021,01,24,04,39,0.00
2021,01,24,04,40,0.00
2021,01,24,04,41,0.00
2021,01,24,04,42,0.00
2021,01,24,04,43,0.00
2021,01,24,04,44,0.00
2021,01,24,04,45,0.00
2021,01,24,04,46,0.00
2021,01,24,04,47,0.00
2021,01,24,04,48,0.00
2021,01,24,04,49,0.00
2021,01,24,04,50,0.00
2021,01,24,04,51,0.00
2021,01,24,04,52,0.00
2021,01,24,04,53,0.00
2021,01,24,04,54,0.00
2021,01,24,04,55,0.00
2021,01,24,04,56,0.00
2021,01,24,04,57,0.00
2021,01,24,04,58,0.00
2021,01,24,04,59,0.00
2021,01,24,05,00,0.00
2021,01,24,05,01,0.00
2021,01,24,05,02,0.00
2021,01,24,05,03,0.00
2021,01,24,05,04,0.00
2021,01,24,05,05,0.00
2021,01,24,05,06,0.00
2021,01,24,05,07,0.00
2021,01,24,05,08,0.00
2021,01,24,05,09,0.00
2021,01,24,05,10,0.00
2021,01,24,05,11,0.00
2021,01,24,05,12,0.00
2021,01,24,05,13,0.00
2021,01,24,05,14,0.00
2021,01,24,05,15,0.00
2021,01,24,05,16,0.00
2021,01,24,05,17,0.00
2021,01,24,05,18,0.00
2021,01,24,05,19,0.00
2021,01,24,05,20,0.00
2021,01,24,05,21,0.00
2021,01,24,05,22,0.00
2021,01,24,05,23,0.00
2021,01,24,05,24,0.00
2021,01,24,05,25,0.00
2021,01,24,05,26,0.00
2021,01,24,05,27,0.00
2021,01,24,05,28,0.00
2021,01,24,05,29,0.00
2021,01,24,05,30,0.00
2021,01,24,05,31,0.00
2021,01,24,05,32,0.00
2021,01,24,05,33,0.00
2021,01,24,05,34,0.00
2021,01,24,05,35,0.00
2021,01,24,05,36,0.00
2021,01,24,05,37,0.00
2021,01,24,05,38,0.00
2021,01,24,05,39,0.00
2021,01,24,05,40,0.00
2021,01,24,05,41,0.00
2021,01,24,05,42,0.00
2021,01,24,05,43,0.00
2021,01,24,05,44,0.00
2021,01,24,05,45,0.00
2021,01,24,05,46,0.00
2021,01,24,05,47,0.00
2021,01,24,05,48,0.00
2021,01,24,05,49,0.00
2021,01,24,05,50,0.00
2021,01,24,05,51,0.00
2021,01,24,05,52,0.00
2021,01,24,05,53,0.00
2021,01,24,05,54,0.00
2021,01,24,05,55,0.00
2021,01,24,05,56,0.00
2021,01,24,05,57,0.00
2021,01,24,05,58,0.00
2021,01,24,05,59,0.00
2021,01,24,06,00,0.00
2021,01,24,06,01,0.00
2021,01,24,06,02,0.00
2021,01,24,06,03,0.00
2021,01,24,06,04,0.00
2021,01,24,06,05,0.00
2021,01,24,06,06,0.00
2021,01,24,06,07,0.00
2021,01,24,06,08,0.00
2021,01,24,06,09,0.00
2021,01,24,06,10,0.00
2021,01,24,06,11,0.00
2021,01,24,06,12,0.00
2021,01,24,06,13,0.00
2021,01,24,06,14,0.00
2021,01,24,06,15,0.00
2021,01,24,06,16,0.00
2021,01,24,06,17,0.00
2021,01,24,06,18,0.00
2021,01,24,06,19,0.00
2021,01,24,06,20,0.00
2021,01,24,06,21,0.00
2021,01,24,06,22,0.00
2021,01,24,06,23,0.00
2021,01,24,06,24,0.00
2021,01,24,06,25,0.00
2021,01,24,06,26,0.00
2021,01,24,06,27,0.00
2021,01,24,06,28,0.00
2021,01,24,06,29,0.00
2021,01,24,06,30,0.00
2021,01,24,06,31,0.00
2021,01,24,06,32,0.00
2021,01,24,06,33,0.00
2021,01,24,06,34,0.00
2021,01,24,06,35,0.00
2021,01,24,06,36,0.00
2021,01,24,06,37,0.00
2021,01,24,06,38,0.00
2021,01,24,06,39,0.00
2021,01,24,06,40,0.00
2021,01,24,06,41,0.00
2021,01,24,06,42,0.00
2021,01,24,06,43,0.00
2021,01,24,06,44,0.00
2021,01,24,06,45,0.00
2021,01,24,06,46,0.00
2021,01,24,06,47,0.00
2021,01,24,06,48,0.00
2021,01,24,06,49,0.00
2021,01,24,06,50,0.00
2021,01,24,06,51,0.00
2021,01,24,06,52,0.00
2021,01,24,06,53,0.00
2021,01,24,06,54,0.00
2021,01,24,06,55,0.00
2021,01,24,06,56,0.00
2021,01,24,06,57,0.00
2021,01,24,06,58,0.00
2021,01,24,06,59,0.00
2021,01,24,07,00,0.00
2021,01,24,07,01,0.00
2021,01,24,07,02,0.00
2021,01,24,07,03,0.00
2021,01,24,07,04,0.00
2021,01,24,07,05,0.00
2021,01,24,07,06,0.00
2021,01,24,07,07,0.00
2021,01,24,07,08,0.00
2021,01,24,07,09,0.00
2021,01,24,07,10,0.00
2021,01,24,07,11,0.00
2021,01,24,07,12,0.00
2021,01,24,07,13,0.00
2021,01,24,07,14,0.00
2021,01,24,07,15,0.00
2021,01,24,07,16,0.00
2021,01,24,07,17,0.00
2021,01,24,07,18,0.00
2021,01,24,07,19,0.00
2021,01,24,07,20,0.00
2021,01,24,07,21,0.00
2021,01,24,07,22,0.00
2021,01,24,07,23,0.00
2021,01,24,07,24,0.00
2021,01,24,07,25,0.00
2021,01,24,07,26,0.00
2021,01,24,07,27,0.00
2021,01,24,07,28,0.00
2021,01,24,07,29,0.00
2021,01,24,07,30,0.00
2021,01,24,07,31,0.00
2021,01,24,07,32,0.00
2021,01,24,07,33,0.00
2021,01,24,07,34,0.00
2021,01,24,07,35,0.00
2021,01,24,07,36,0.00
2021,01,24,07,37,0.00
2021,01,24,07,38,0.00
2021,01,24,07,39,0.00
2021,01,24,07,40,0.00
2021,01,24,07,41,0.00
2021,01,24,07,42,0.00
2021,01,24,07,43,0.00
2021,01,24,07,44,0.00
2021,01,24,07,45,0.00
2021,01,24,07,46,0.00
2021,01,24,07,47,0.00
2021,01,24,07,48,0.00
2021,01,24,07,49,0.00
2021,01,24,07,50,0.00
2021,01,24,07,51,0.00
2021,01,24,07,52,0.00
2021,01,24,07,53,0.00
2021,01,24,07,54,0.00
2021,01,24,07,55,0.00
2021,01,24,07,56,0.00
2021,01,24,07,57,0.00
2021,01,24,07,58,0.00
2021,01,24,07,59,0.00
2021,01,24,08,00,0.00
2021,01,24,08,01,0.00
2021,01,24,08,02,0.00
2021,01,24,08,03,0.00
2021,01,24,08,04,0.00
2021,01,24,08,05,0.00
2021,01,24,08,06,0.00
2021,01,24,08,07,0.00
2021,01,24,08,08,0.00
2021,01,24,08,09,0.00
2021,01,24,08,10,0.00
2021,01,24,08,11,0.00
2021,01,24,08,12,0.00
2021,01,24,08,13,0.00
2021,01,24,08,14,0.00
2021,01,24,08,15,0.00
2021,01,24,08,16,0.00
2021,01,24,08,17,0.00
2021,01,24,08,18,3.30
2021,01,24,08,19,5.00
2021,01,24,08,20,5.00
2021,01,24,08,21,5.00
2021,01,24,08,22,0.40
2021,01,24,08,23,0.00
2021,01,24,08,24,0.60
2021,01,24,08,25,5.00
2021,01,24,08,26,3.80
2021,01,24,08,27,1.50
2021,01,24,08,28,5.00
2021,01,24,08,29,5.00
2021,01,24,08,30,5.00
2021,01,24,08,31,6.10
2021,01,24,08,32,9.50
2021,01,24,08,33,11.00
2021,01,24,08,34,11.00
2021,01,24,08,35,9.40
2021,01,24,08,36,9.00
2021,01,24,08,37,9.00
2021,01,24,08,38,11.00
2021,01,24,08,39,11.00
2021,01,24,08,40,10.70
2021,01,24,08,41,9.00
2021,01,24,08,42,9.60
2021,01,24,08,43,11.00
2021,01,24,08,44,10.20
2021,01,24,08,45,9.00
2021,01,24,08,46,9.00
2021,01,24,08,47,7.80
2021,01,24,08,48,8.40
2021,01,24,08,49,10.50
2021,01,24,08,50,11.00
2021,01,24,08,51,11.00
2021,01,24,08,52,9.20
2021,01,24,08,53,11.20
2021,01,24,08,54,13.80
2021,01,24,08,55,10.40
2021,01,24,08,56,7.00
2021,01,24,08,57,7.00
2021,01,24,08,58,7.00
2021,01,24,08,59,7.80
2021,01,24,09,00,9.00
2021,01,24,09,01,10.20
2021,01,24,09,02,12.80
2021,01,24,09,03,12.70
2021,01,24,09,04,11.30
2021,01,24,09,05,11.80
2021,01,24,09,06,13.70
2021,01,24,09,07,12.20
2021,01,24,09,08,14.20
2021,01,24,09,09,18.00
2021,01,24,09,10,18.20
2021,01,24,09,11,19.00
2021,01,24,09,12,20.20
2021,01,24,09,13,23.00
2021,01,24,09,14,23.00
2021,01,24,09,15,20.50
2021,01,24,09,16,18.00
2021,01,24,09,17,19.80
2021,01,24,09,18,23.60
2021,01,24,09,19,25.00
2021,01,24,09,20,25.00
2021,01,24,09,21,25.00
2021,01,24,09,22,21.30
2021,01,24,09,23,19.20
2021,01,24,09,24,25.30
2021,01,24,09,25,28.30
2021,01,24,09,26,29.50
2021,01,24,09,27,29.50
2021,01,24,09,28,31.80
2021,01,24,09,29,29.10
2021,01,24,09,30,27.10
2021,01,24,09,31,27.10
2021,01,24,09,32,28.00
2021,01,24,09,33,26.70
2021,01,24,09,34,26.00
2021,01,24,09,35,26.00
2021,01,24,09,36,25.10
2021,01,24,09,37,25.00
2021,01,24,09,38,25.90
2021,01,24,09,39,24.80
2021,01,24,09,40,23.00
2021,01,24,09,41,23.70
2021,01,24,09,42,25.70
2021,01,24,09,43,25.00
2021,01,24,09,44,24.20
2021,01,24,09,45,22.00
2021,01,24,09,46,19.90
2021,01,24,09,47,18.40
2021,01,24,09,48,18.00
2021,01,24,09,49,18.80
2021,01,24,09,50,22.10
2021,01,24,09,51,27.20
2021,01,24,09,52,28.00
2021,01,24,09,53,24.90
2021,01,24,09,54,23.00
2021,01,24,09,55,22.00
2021,01,24,09,56,18.20
2021,01,24,09,57,19.00
2021,01,24,09,58,19.70
2021,01,24,09,59,21.00
2021,01,24,10,00,22.90
2021,01,24,10,01,25.50
2021,01,24,10,02,27.20
2021,01,24,10,03,31.50
2021,01,24,10,04,34.50
2021,01,24,10,05,33.50
2021,01,24,10,06,32.20
2021,01,24,10,07,28.30
2021,01,24,10,08,26.00
2021,01,24,10,09,26.30
2021,01,24,10,10,30.50
2021,01,24,10,11,33.50
2021,01,24,10,12,37.80
2021,01,24,10,13,45.90
2021,01,24,10,14,49.00
2021,01,24,10,15,47.60
2021,01,24,10,16,46.50
2021,01,24,10,17,50.70
2021,01,24,10,18,53.00
2021,01,24,10,19,50.10
2021,01,24,10,20,53.00
2021,01,24,10,21,59.10
2021,01,24,10,22,62.80
2021,01,24,10,23,64.90
2021,01,24,10,24,65.00
2021,01,24,10,25,65.00
2021,01,24,10,26,65.50
2021,01,24,10,27,67.00
2021,01,24,10,28,66.20
2021,01,24,10,29,65.00
2021,01,24,10,30,64.00
2021,01,24,10,31,64.10
2021,01,24,10,32,61.90
2021,01,24,10,33,55.90
2021,01,24,10,34,58.40
2021,01,24,10,35,58.40
2021,01,24,10,36,58.00
2021,01,24,10,37,59.80
2021,01,24,10,38,57.70
2021,01,24,10,39,48.80
2021,01,24,10,40,46.20
2021,01,24,10,41,41.30
2021,01,24,10,42,39.30
2021,01,24,10,43,43.20
2021,01,24,10,44,52.00
2021,01,24,10,45,57.00
2021,01,24,10,46,58.00
2021,01,24,10,47,58.00
2021,01,24,10,48,58.00
2021,01,24,10,49,56.50
2021,01,24,10,50,54.40
2021,01,24,10,51,53.20
2021,01,24,10,52,53.00
2021,01,24,10,53,53.00
2021,01,24,10,54,52.80
2021,01,24,10,55,50.70
2021,01,24,10,56,49.00
2021,01,24,10,57,49.00
2021,01,24,10,58,49.00
2021,01,24,10,59,48.20
2021,01,24,11,00,48.00
2021,01,24,11,01,49.00
2021,01,24,11,02,50.20
2021,01,24,11,03,52.40
2021,01,24,11,04,53.00
2021,01,24,11,05,53.00
2021,01,24,11,06,53.80
2021,01,24,11,07,54.00
2021,01,24,11,08,55.80
2021,01,24,11,09,54.00
2021,01,24,11,10,54.40
2021,01,24,11,11,56.00
2021,01,24,11,12,56.00
2021,01,24,11,13,56.00
2021,01,24,11,14,56.00
2021,01,24,11,15,56.00
2021,01,24,11,16,57.20
2021,01,24,11,17,59.20
2021,01,24,11,18,62.00
2021,01,24,11,19,64.50
2021,01,24,11,20,66.60
2021,01,24,11,21,68.70
2021,01,24,11,22,69.00
2021,01,24,11,23,69.00
2021,01,24,11,24,69.00
2021,01,24,11,25,69.00
2021,01,24,11,26,69.00
2021,01,24,11,27,69.00
2021,01,24,11,28,69.00
2021,01,24,11,29,69.00
2021,01,24,11,30,69.00
2021,01,24,11,31,69.00
2021,01,24,11,32,69.00
2021,01,24,11,33,69.00
2021,01,24,11,34,69.00
2021,01,24,11,35,69.00
2021,01,24,11,36,69.80
2021,01,24,11,37,70.00
2021,01,24,11,38,70.20
2021,01,24,11,39,72.20
2021,01,24,11,40,74.30
2021,01,24,11,41,76.20
2021,01,24,11,42,78.10
2021,01,24,11,43,81.70
2021,01,24,11,44,83.40
2021,01,24,11,45,84.00
2021,01,24,11,46,84.00
2021,01,24,11,47,84.00
2021,01,24,11,48,83.30
2021,01,24,11,49,81.50
2021,01,24,11,50,79.40
2021,01,24,11,51,76.40
2021,01,24,11,52,74.20
2021,01,24,11,53,70.00
2021,01,24,11,54,66.80
2021,01,24,11,55,64.70
2021,01,24,11,56,62.80
2021,01,24,11,57,62.00
2021,01,24,11,58,62.40
2021,01,24,11,59,63.80
2021,01,24,12,00,66.00
2021,01,24,12,01,68.10
2021,01,24,12,02,69.00
2021,01,24,12,03,71.00
2021,01,24,12,04,74.90
2021,01,24,12,05,76.80
2021,01,24,12,06,80.50
2021,01,24,12,07,83.80
2021,01,24,12,08,86.00
2021,01,24,12,09,88.30
2021,01,24,12,10,91.00
2021,01,24,12,11,91.50
2021,01,24,12,12,93.50
2021,01,24,12,13,95.70
2021,01,24,12,14,97.40
2021,01,24,12,15,99.00
2021,01,24,12,16,100.00
2021,01,24,12,17,101.20
2021,01,24,12,18,103.30
2021,01,24,12,19,104.00
2021,01,24,12,20,104.00
2021,01,24,12,21,104.00
2021,01,24,12,22,102.20
2021,01,24,12,23,101.90
2021,01,24,12,24,99.80
2021,01,24,12,25,97.80
2021,01,24,12,26,96.50
2021,01,24,12,27,94.40
2021,01,24,12,28,92.30
2021,01,24,12,29,90.60
2021,01,24,12,30,89.00
2021,01,24,12,31,86.90
2021,01,24,12,32,84.80
2021,01,24,12,33,83.30
2021,01,24,12,34,83.00
2021,01,24,12,35,83.00
2021,01,24,12,36,83.90
2021,01,24,12,37,87.70
2021,01,24,12,38,89.90
2021,01,24,12,39,90.10
2021,01,24,12,40,91.30
2021,01,24,12,41,93.00
2021,01,24,12,42,93.00
2021,01,24,12,43,93.70
2021,01,24,12,44,95.80
2021,01,24,12,45,97.50
2021,01,24,12,46,100.20
2021,01,24,12,47,103.80
2021,01,24,12,48,106.40
2021,01,24,12,49,108.50
2021,01,24,12,50,112.20
2021,01,24,12,51,113.80
2021,01,24,12,52,115.80
2021,01,24,12,53,118.00
2021,01,24,12,54,120.10
2021,01,24,12,55,121.40
2021,01,24,12,56,123.00
2021,01,24,12,57,123.50
2021,01,24,12,58,124.20
2021,01,24,12,59,123.00
2021,01,24,13,00,123.00
2021,01,24,13,01,124.10
2021,01,24,13,02,125.00
2021,01,24,13,03,126.30
2021,01,24,13,04,127.70
2021,01,24,13,05,131.20
2021,01,24,13,06,133.70
2021,01,24,13,07,136.80
2021,01,24,13,08,141.20
2021,01,24,13,09,144.50
2021,01,24,13,10,148.20
2021,01,24,13,11,149.50
2021,01,24,13,12,151.60
2021,01,24,13,13,152.30
2021,01,24,13,14,150.20
2021,01,24,13,15,148.50
2021,01,24,13,16,145.80
2021,01,24,13,17,142.20
2021,01,24,13,18,138.40
2021,01,24,13,19,133.30
2021,01,24,13,20,128.80
2021,01,24,13,21,125.50
2021,01,24,13,22,123.20
2021,01,24,13,23,119.90
2021,01,24,13,24,117.50
2021,01,24,13,25,113.80
2021,01,24,13,26,113.00
2021,01,24,13,27,112.40
2021,01,24,13,28,111.00
2021,01,24,13,29,111.80
2021,01,24,13,30,113.00
2021,01,24,13,31,114.60
2021,01,24,13,32,117.20
2021,01,24,13,33,119.40
2021,01,24,13,34,122.20
2021,01,24,13,35,124.60
2021,01,24,13,36,127.70
2021,01,24,13,37,129.80
2021,01,24,13,38,132.00
2021,01,24,13,39,134.00
2021,01,24,13,40,134.00
2021,01,24,13,41,133.50
2021,01,24,13,42,132.00
2021,01,24,13,43,130.50
2021,01,24,13,44,127.60
2021,01,24,13,45,126.00
2021,01,24,13,46,123.90
2021,01,24,13,47,123.00
2021,01,24,13,48,121.60
2021,01,24,13,49,121.00
2021,01,24,13,50,122.50
2021,01,24,13,51,123.00
2021,01,24,13,52,124.80
2021,01,24,13,53,127.00
2021,01,24,13,54,128.20
2021,01,24,13,55,130.30
2021,01,24,13,56,132.50
2021,01,24,13,57,134.30
2021,01,24,13,58,135.80
2021,01,24,13,59,137.90
2021,01,24,14,00,139.00
2021,01,24,14,01,139.00
2021,01,24,14,02,139.00
2021,01,24,14,03,139.00
2021,01,24,14,04,136.10
2021,01,24,14,05,134.20
2021,01,24,14,06,132.20
2021,01,24,14,07,128.30
2021,01,24,14,08,124.90
2021,01,24,14,09,119.50
2021,01,24,14,10,115.40
2021,01,24,14,11,112.00
2021,01,24,14,12,107.90
2021,01,24,14,13,104.70
2021,01,24,14,14,102.30
2021,01,24,14,15,99.00
2021,01,24,14,16,97.40
2021,01,24,14,17,95.80
2021,01,24,14,18,93.70
2021,01,24,14,19,91.50
2021,01,24,14,20,91.00
2021,01,24,14,21,90.20
2021,01,24,14,22,90.00
2021,01,24,14,23,88.00
2021,01,24,14,24,87.80
2021,01,24,14,25,86.00
2021,01,24,14,26,85.50
2021,01,24,14,27,84.00
2021,01,24,14,28,83.70
2021,01,24,14,29,83.40
2021,01,24,14,30,84.00
2021,01,24,14,31,84.00
2021,01,24,14,32,85.20
2021,01,24,14,33,87.30
2021,01,24,14,34,88.00
2021,01,24,14,35,88.00
2021,01,24,14,36,88.00
2021,01,24,14,37,88.00
2021,01,24,14,38,88.00
2021,01,24,14,39,88.00
2021,01,24,14,40,88.00
2021,01,24,14,41,88.00
2021,01,24,14,42,87.40
2021,01,24,14,43,86.00
2021,01,24,14,44,86.00
2021,01,24,14,45,86.00
2021,01,24,14,46,84.90
2021,01,24,14,47,84.00
2021,01,24,14,48,84.00
2021,01,24,14,49,83.30
2021,01,24,14,50,83.00
2021,01,24,14,51,83.00
2021,01,24,14,52,83.00
2021,01,24,14,53,80.90
2021,01,24,14,54,78.80
2021,01,24,14,55,76.80
2021,01,24,14,56,75.10
2021,01,24,14,57,71.40
2021,01,24,14,58,69.70
2021,01,24,14,59,67.30
2021,01,24,15,00,64.00
2021,01,24,15,01,62.40
2021,01,24,15,02,60.80
2021,01,24,15,03,58.70
2021,01,24,15,04,56.50
2021,01,24,15,05,54.40
2021,01,24,15,06,53.10
2021,01,24,15,07,51.20
2021,01,24,15,08,50.90
2021,01,24,15,09,48.80
2021,01,24,15,10,47.00
2021,01,24,15,11,46.80
2021,01,24,15,12,45.40
2021,01,24,15,13,44.00
2021,01,24,15,14,43.20
2021,01,24,15,15,42.00
2021,01,24,15,16,40.90
2021,01,24,15,17,40.00
2021,01,24,15,18,39.30
2021,01,24,15,19,39.00
2021,01,24,15,20,37.50
2021,01,24,15,21,37.00
2021,01,24,15,22,35.20
2021,01,24,15,23,34.90
2021,01,24,15,24,33.00
2021,01,24,15,25,32.80
2021,01,24,15,26,32.00
2021,01,24,15,27,32.00
2021,01,24,15,28,31.30
2021,01,24,15,29,30.00
2021,01,24,15,30,30.00
2021,01,24,15,31,28.80
2021,01,24,15,32,28.00
2021,01,24,15,33,26.70
2021,01,24,15,34,26.00
2021,01,24,15,35,26.00
2021,01,24,15,36,25.10
2021,01,24,15,37,25.00
2021,01,24,15,38,24.90
2021,01,24,15,39,23.00
2021,01,24,15,40,23.00
2021,01,24,15,41,23.00
2021,01,24,15,42,22.50
2021,01,24,15,43,21.00
2021,01,24,15,44,21.00
2021,01,24,15,45,21.00
2021,01,24,15,46,21.00
2021,01,24,15,47,19.80
2021,01,24,15,48,19.00
2021,01,24,15,49,19.00
2021,01,24,15,50,18.20
2021,01,24,15,51,18.00
2021,01,24,15,52,18.00
2021,01,24,15,53,16.00
2021,01,24,15,54,15.80
2021,01,24,15,55,14.00
2021,01,24,15,56,13.50
2021,01,24,15,57,12.00
2021,01,24,15,58,12.00
2021,01,24,15,59,12.00
2021,01,24,16,00,11.50
2021,01,24,16,01,11.00
2021,01,24,16,02,11.00
2021,01,24,16,03,11.00
2021,01,24,16,04,11.00
2021,01,24,16,05,11.00
2021,01,24,16,06,11.00
2021,01,24,16,07,9.20
2021,01,24,16,08,9.00
2021,01,24,16,09,9.00
2021,01,24,16,10,9.00
2021,01,24,16,11,9.00
2021,01,24,16,12,9.00
2021,01,24,16,13,9.00
2021,01,24,16,14,9.00
2021,01,24,16,15,9.00
2021,01,24,16,16,7.90
2021,01,24,16,17,8.20
2021,01,24,16,18,9.00
2021,01,24,16,19,9.00
2021,01,24,16,20,9.00
2021,01,24,16,21,7.30
2021,01,24,16,22,7.00
2021,01,24,16,23,7.00
2021,01,24,16,24,7.00
2021,01,24,16,25,7.00
2021,01,24,16,26,7.00
2021,01,24,16,27,7.00
2021,01,24,16,28,7.00
2021,01,24,16,29,7.00
2021,01,24,16,30,6.10
2021,01,24,16,31,5.00
2021,01,24,16,32,5.00
2021,01,24,16,33,5.00
2021,01,24,16,34,5.00
2021,01,24,16,35,5.00
2021,01,24,16,36,5.00
2021,01,24,16,37,5.00
2021,01,24,16,38,5.00
2021,01,24,16,39,5.00
2021,01,24,16,40,5.00
2021,01,24,16,41,5.00
2021,01,24,16,42,3.60
2021,01,24,16,43,0.00
2021,01,24,16,44,0.00
2021,01,24,16,45,0.00
2021,01,24,16,46,0.00
2021,01,24,16,47,0.00
2021,01,24,16,48,0.00
2021,01,24,16,49,0.00
2021,01,24,16,50,0.00
2021,01,24,16,51,0.00
2021,01,24,16,52,0.00
2021,01,24,16,53,0.00
2021,01,24,16,54,0.00
2021,01,24,16,55,0.00
2021,01,24,16,56,0.00
2021,01,24,16,57,0.00
2021,01,24,16,58,0.00
2021,01,24,16,59,0.00
2021,01,24,17,00,0.00
2021,01,24,17,01,0.00
2021,01,24,17,02,0.00
2021,01,24,17,03,0.00
2021,01,24,17,04,0.00
2021,01,24,17,05,0.00
2021,01,24,17,06,0.00
2021,01,24,17,07,0.00
2021,01,24,17,08,0.00
2021,01,24,17,09,0.00
2021,01,24,17,10,0.00
2021,01,24,17,11,0.00
2021,01,24,17,12,0.00
2021,01,24,17,13,0.00
2021,01,24,17,14,0.00
2021,01,24,17,15,0.00
2021,01,24,17,16,0.00
2021,01,24,17,17,0.00
2021,01,24,17,18,0.00
2021,01,24,17,19,0.00
2021,01,24,17,20,0.00
2021,01,24,17,21,0.00
2021,01,24,17,22,0.00
2021,01,24,17,23,0.00
2021,01,24,17,24,0.00
2021,01,24,17,25,0.00
2021,01,24,17,26,0.00
2021,01,24,17,27,0.00
2021,01,24,17,28,0.00
2021,01,24,17,29,0.00
2021,01,24,17,30,0.00
2021,01,24,17,31,0.00
2021,01,24,17,32,0.00
2021,01,24,17,33,0.00
2021,01,24,17,34,0.00
2021,01,24,17,35,0.00
2021,01,24,17,36,0.00
2021,01,24,17,37,0.00
2021,01,24,17,38,0.00
2021,01,24,17,39,0.00
2021,01,24,17,40,0.00
2021,01,24,17,41,0.00
2021,01,24,17,42,0.00